GFSNW_850_dewp_294.txt.gz
Dewpoint
-5 -1 -2 -2 -1 -1 -4 1 1 -2 0 0 -0 1 -1 -2 -1 -6 -5 -3 1 4 3 5 5 6 -0 -15 -16 -15 -15 -5 1 -5 -15 -15 -14 -13 -15 -2 1 -0 0 -1
-2 -2 -1 -1 -1 -1 -0 1 -0 -1 0 1 -1 -2 -2 -1 -2 -2 -2 -0 -0 -0 2 4 4 1 -13 -14 -11 0 -3 -0 2 -1 -14 -11 -10 -13 -13 -12 -9 -0 -0 -1
-3 -3 -3 -3 -3 -2 -1 -1 -0 -0 2 1 2 2 1 1 1 0 -0 1 -0 1 1 2 2 1 -5 -14 -6 -4 -3 0 2 3 1 -1 -1 -6 -12 -10 -2 -2 -2 -4
-2 -3 -3 -4 -4 -4 -3 -0 -1 -1 1 -0 0 -0 3 3 3 0 -0 1 1 0 1 -0 0 -2 -3 -9 -10 -9 -4 -1 -2 -1 -2 -2 -1 -2 -4 -8 -7 -3 -4 -4
-2 -2 -3 -3 -5 -4 -2 -1 -1 -1 -0 -1 -1 0 1 -1 -2 -1 -0 1 -0 0 1 -1 2 0 2 2 -6 -7 -3 -2 -3 -2 -4 -4 -3 -5 -4 -4 -6 -8 -8 -8
-2 -3 -3 -3 -5 -6 -2 -2 -3 -0 -0 -1 1 1 0 -1 -1 -1 -1 -1 1 2 1 0 0 1 1 1 -2 -2 -2 -3 -2 -1 -5 -3 -3 -5 -5 -6 -6 -7 -5 -8
-3 -4 -5 -3 -3 -4 -4 -3 -2 -1 -2 -1 -0 -1 -4 -1 0 1 0 1 1 0 0 0 -1 -1 -1 -1 -1 -1 -2 -3 -2 -2 -5 -2 -7 -13 -14 -12 -12 -13 -10 -9
-3 -4 -5 -4 -4 -3 -6 -4 -3 -1 -2 -3 -3 -3 -2 -2 -3 -1 -2 -2 -1 -2 -2 -0 -0 -1 -2 -4 -4 -1 -2 -3 -2 -2 -2 -4 -6 -13 -14 -14 -13 -17 -15 -15
-4 -5 -5 -5 -4 -2 -5 -8 -8 -3 -2 -2 -1 -1 -1 -2 -2 -3 -2 -3 -3 -3 -2 -1 -1 -3 -5 -1 -6 -6 -3 -3 -3 -2 -3 -3 -11 -17 -18 -16 -5 -18 -16 -15
-3 -5 -4 -4 -3 -2 -4 -8 -7 -3 -3 -4 -4 -3 -1 -1 -3 -2 -4 -2 -4 -5 -4 -3 -3 -3 -4 -1 -0 -6 -5 -4 -4 -5 -3 -5 -15 -17 -18 -3 -4 -18 -16 -16
-4 -3 -3 -4 -5 -4 -4 -5 -6 -4 -3 -3 -3 -4 -3 -2 -2 -1 -2 -3 -4 -4 -3 -1 -1 -3 -4 -4 -4 -5 -5 -5 -5 -5 -3 -4 -18 -17 -6 -7 -8 -17 -16 -16
-5 -4 -3 -4 -5 -5 -4 -3 -5 -5 -3 -4 -7 -7 -6 -7 -5 -2 -3 -3 -2 -3 -3 -4 -3 -4 -5 -5 -2 -6 -4 -5 -3 -4 -6 -13 -17 -6 -7 -8 -8 -15 -15 -15
-6 -5 -4 -4 -4 -5 -4 -3 -5 -5 -4 -5 -4 -4 -5 -5 -5 -3 -2 -2 -2 -3 -2 -2 -2 -2 -4 -3 -3 -6 -7 -7 -5 -5 -7 -7 -8 -12 -8 -7 -8 -9 -15 -15
-6 -6 -6 -6 -7 -6 -6 -5 -6 -5 -4 -3 -6 -6 -5 -4 -4 -4 -4 -3 -2 -3 -4 -4 -3 -2 -3 -4 -5 -6 -6 -6 -7 -7 -7 -8 -9 -7 -7 -7 -8 -9 -12 -15
-7 -8 -5 -5 -8 -7 -8 -8 -8 -6 -4 -4 -6 -6 -5 -4 -4 -4 -4 -4 -5 -5 -5 -5 -4 -5 -5 -6 -6 -6 -8 -7 -6 -4 -5 -5 -7 -7 -7 -8 -8 -9 -12 -15
-6 -9 -9 -8 -7 -6 -6 -5 -4 -3 -3 -3 -2 -4 -4 -5 -6 -6 -7 -7 -7 -6 -6 -5 -5 -5 -6 -5 -4 -8 -8 -7 -6 -6 -7 -6 -7 -7 -8 -12 -9 -12 -15 -17
-7 -9 -6 -5 -5 -6 -5 -6 -4 -4 -4 -4 -3 -3 -7 -9 -8 -8 -8 -8 -7 -7 -6 -6 -7 -7 -7 -6 -6 -9 -9 -7 -7 -8 -9 -8 -8 -9 -14 -14 -14 -13 -16 -18
-8 -7 -6 -6 -7 -7 -6 -5 -5 -5 -5 -4 -3 -4 -7 -9 -9 -8 -8 -7 -8 -7 -7 -7 -7 -7 -8 -8 -9 -7 -7 -8 -9 -9 -9 -9 -9 -13 -14 -14 -14 -16 -17 -18
-7 -8 -6 -6 -5 -5 -5 -5 -5 -5 -5 -4 -3 -4 -5 -9 -8 -9 -8 -9 -7 -8 -8 -7 -9 -8 -8 -8 -8 -8 -7 -9 -9 -10 -11 -15 -15 -15 -15 -15 -15 -16 -17 -18
-7 -7 -7 -5 -5 -5 -6 -6 -6 -6 -6 -6 -6 -8 -6 -8 -8 -7 -8 -8 -9 -9 -8 -10 -8 -9 -11 -11 -9 -8 -8 -9 -12 -13 -15 -15 -15 -16 -16 -16 -16 -16 -18 -18
-7 -7 -5 -5 -5 -6 -6 -6 -6 -6 -7 -7 -7 -8 -8 -8 -8 -7 -8 -8 -8 -9 -8 -9 -8 -8 -11 -13 -13 -11 -8 -11 -15 -16 -16 -16 -17 -17 -18 -17 -18 -19 -19 -18
-7 -7 -6 -6 -6 -6 -7 -6 -8 -8 -7 -8 -8 -8 -9 -9 -9 -8 -9 -9 -9 -8 -10 -9 -9 -10 -12 -13 -10 -9 -10 -15 -16 -16 -17 -17 -18 -19 -19 -19 -19 -18 -18 -18
-5 -6 -6 -7 -7 -8 -7 -8 -5 -7 -7 -8 -9 -8 -9 -10 -10 -9 -9 -9 -9 -10 -9 -9 -9 -12 -15 -12 -10 -12 -14 -16 -16 -17 -17 -18 -18 -18 -18 -18 -18 -18 -18 -17
-7 -6 -7 -8 -8 -8 -7 -6 -4 -7 -7 -8 -9 -8 -9 -9 -9 -10 -9 -9 -10 -9 -8 -9 -10 -15 -14 -11 -12 -15 -15 -16 -17 -18 -18 -18 -18 -18 -18 -18 -17 -17 -16 -16
-7 -6 -7 -7 -7 -7 -6 -6 -7 -8 -8 -9 -10 -9 -10 -9 -10 -10 -10 -10 -9 -9 -8 -8 -12 -19 -13 -11 -13 -15 -16 -17 -17 -17 -18 -18 -17 -17 -17 -16 -16 -16 -16 -16
-6 -6 -5 -6 -7 -7 -7 -7 -7 -8 -9 -9 -9 -10 -11 -11 -10 -10 -10 -8 -8 -8 -9 -10 -15 -19 -14 -13 -15 -15 -16 -17 -16 -16 -17 -17 -17 -16 -17 -17 -17 -17 -16 -16
-6 -7 -6 -6 -7 -7 -6 -7 -7 -8 -9 -9 -8 -9 -10 -10 -11 -9 -10 -9 -9 -10 -14 -17 -19 -19 -17 -13 -13 -15 -16 -16 -15 -16 -17 -17 -17 -17 -17 -17 -16 -16 -16 -15

GFSNW_850_dewp_297.txt.gz
Dewpoint
-16 -1 -2 -4 -3 -5 -3 -1 -0 -4 -1 -1 -1 -1 -1 -2 -1 -4 -4 -1 0 4 4 4 5 5 2 -2 -2 -1 -2 -1 0 -4 -15 -14 -14 -13 -14 0 1 0 0 -1
-17 -3 -1 -2 -4 -6 -4 -1 -0 -2 -1 1 -1 -1 0 -1 -0 0 2 3 1 1 2 3 4 2 -4 -11 -4 1 -1 0 2 2 -12 -8 -7 -11 -12 -6 -1 -0 1 -0
-10 -3 -3 -2 -2 -5 -5 -2 -0 -2 1 1 2 2 3 2 1 1 0 2 -0 -0 1 1 2 0 -2 -12 -4 -0 -1 -0 2 2 2 -1 -0 -2 -10 -8 -1 -2 -2 -4
-3 -3 -2 -3 -3 -3 -6 -4 -2 -2 -2 -2 -1 -2 -1 -2 -1 0 0 1 0 0 1 -1 1 -1 -2 -5 -10 -2 -2 -1 -2 -1 -1 -2 -1 -1 -2 -4 -4 -2 -4 -4
-4 -2 -3 -4 -5 -3 -4 -3 -2 -2 -2 -2 -1 -2 -2 -1 -1 -1 -1 -0 1 1 1 -0 1 0 1 1 -3 -3 -4 -2 -3 -2 -3 -3 -2 -3 -4 -3 -3 -3 -4 -4
-4 -4 -4 -4 -5 -2 -2 -3 -4 -2 -2 -3 -3 -4 -1 0 -1 -3 -1 -0 0 -0 -0 -0 -0 -0 0 -0 -0 -3 -2 -3 -2 -1 -5 -5 -3 -5 -5 -5 -6 -5 -2 -5
-4 -5 -4 -5 -5 -4 -2 -2 -3 -3 -3 -2 -3 -3 -4 -3 -2 -1 -1 -2 -1 -2 -1 -1 -1 -2 -2 -2 -1 -2 -2 -3 -2 -2 -5 -3 -7 -12 -12 -11 -10 -12 -12 -13
-4 -6 -3 -5 -5 -4 -2 -2 -3 -3 -3 -4 -5 -3 -3 -2 -3 -4 -4 -4 -3 -2 -2 -4 -5 -4 -2 -3 -3 -2 -1 -2 -2 -2 -3 -5 -9 -13 -13 -14 -11 -18 -16 -16
-3 -7 -4 -3 -4 -3 -2 -2 -4 -3 -3 -6 -5 -5 -5 -5 -5 -4 -3 -3 -5 -3 -5 -3 -5 -4 -7 -6 -5 -7 -3 -3 -3 -3 -4 -4 -8 -17 -18 -14 -6 -18 -16 -15
-4 -4 -5 -4 -3 -2 -3 -2 -3 -4 -3 -5 -4 -3 -4 -2 -4 -4 -5 -3 -3 -4 -6 -3 -3 -4 -5 -2 -2 -5 -6 -5 -5 -5 -3 -6 -10 -18 -17 -4 -4 -11 -16 -16
-4 -5 -4 -5 -4 -3 -3 -4 -3 -3 -3 -4 -5 -4 -3 -3 -3 -2 -4 -4 -6 -6 -4 -2 -4 -5 -5 -6 -6 -7 -6 -5 -6 -5 -5 -6 -17 -17 -6 -5 -7 -8 -15 -16
-5 -6 -6 -6 -6 -4 -3 -4 -4 -3 -3 -3 -6 -7 -6 -5 -6 -3 -3 -5 -4 -3 -4 -3 -4 -2 -7 -7 -3 -7 -4 -5 -4 -5 -7 -13 -18 -7 -7 -7 -6 -8 -15 -15
-6 -6 -7 -5 -5 -5 -5 -4 -4 -4 -3 -5 -4 -7 -8 -6 -5 -3 -3 -3 -4 -2 -3 -3 -3 -2 -5 -4 -6 -7 -7 -8 -3 -5 -7 -6 -10 -7 -8 -9 -6 -7 -12 -15
-6 -5 -6 -8 -7 -5 -7 -6 -6 -5 -4 -4 -7 -7 -5 -5 -5 -5 -3 -3 -3 -3 -4 -4 -3 -4 -4 -4 -5 -6 -6 -7 -8 -7 -7 -7 -7 -9 -6 -7 -7 -8 -9 -9
-6 -6 -6 -8 -10 -9 -7 -5 -6 -7 -4 -5 -6 -6 -5 -5 -5 -4 -4 -4 -4 -6 -5 -5 -6 -5 -5 -5 -6 -7 -7 -6 -4 -4 -5 -5 -6 -6 -7 -7 -8 -8 -9 -10
-7 -6 -5 -8 -8 -5 -4 -5 -4 -4 -4 -4 -3 -5 -5 -5 -7 -7 -6 -6 -7 -7 -6 -6 -5 -5 -5 -5 -5 -8 -7 -7 -7 -6 -6 -7 -7 -8 -8 -8 -9 -9 -10 -12
-5 -4 -4 -7 -7 -4 -5 -7 -6 -6 -6 -6 -5 -6 -6 -8 -9 -8 -8 -8 -8 -7 -6 -6 -6 -7 -6 -6 -6 -8 -7 -8 -9 -8 -8 -8 -9 -9 -10 -11 -11 -12 -14 -17
-5 -4 -5 -7 -8 -6 -5 -4 -5 -5 -5 -5 -5 -7 -7 -9 -9 -8 -8 -8 -7 -7 -7 -7 -8 -8 -8 -9 -9 -7 -8 -8 -9 -10 -10 -9 -9 -11 -14 -14 -14 -15 -16 -18
-3 -4 -6 -8 -7 -6 -5 -5 -5 -5 -5 -5 -6 -7 -7 -8 -8 -9 -9 -9 -11 -7 -11 -8 -9 -9 -9 -10 -8 -8 -8 -8 -11 -10 -12 -14 -15 -14 -14 -14 -15 -16 -17 -18
-4 -6 -8 -6 -5 -5 -5 -6 -6 -7 -6 -6 -8 -7 -9 -8 -8 -8 -8 -8 -12 -12 -9 -10 -10 -10 -11 -10 -10 -11 -9 -8 -13 -12 -15 -15 -15 -15 -15 -15 -16 -16 -18 -19
-5 -7 -6 -5 -5 -5 -7 -6 -7 -6 -10 -7 -7 -8 -10 -8 -9 -9 -8 -10 -10 -11 -10 -11 -10 -9 -10 -12 -13 -11 -9 -10 -15 -16 -16 -16 -17 -17 -17 -17 -17 -19 -19 -18
-6 -7 -6 -6 -7 -7 -10 -9 -10 -12 -10 -8 -9 -8 -9 -9 -9 -10 -10 -10 -11 -10 -10 -11 -10 -11 -12 -14 -10 -10 -9 -15 -16 -17 -17 -17 -18 -19 -19 -19 -19 -18 -18 -18
-6 -5 -6 -7 -7 -10 -10 -12 -11 -9 -8 -8 -9 -10 -9 -10 -10 -9 -11 -11 -10 -10 -11 -10 -11 -12 -14 -13 -10 -11 -14 -16 -17 -17 -18 -18 -19 -19 -19 -18 -18 -18 -18 -17
-6 -6 -7 -8 -11 -9 -11 -10 -5 -7 -7 -8 -9 -9 -10 -9 -10 -11 -10 -10 -11 -11 -11 -10 -11 -15 -17 -12 -11 -15 -15 -16 -17 -18 -19 -19 -18 -18 -18 -18 -17 -17 -16 -16
-7 -6 -7 -8 -9 -7 -6 -6 -6 -7 -8 -9 -10 -10 -10 -11 -11 -11 -12 -11 -11 -10 -10 -9 -12 -19 -15 -11 -13 -15 -16 -16 -18 -18 -18 -18 -18 -18 -17 -17 -16 -16 -16 -16
-6 -6 -6 -6 -8 -9 -7 -8 -7 -8 -8 -9 -9 -13 -13 -13 -12 -12 -11 -9 -9 -9 -10 -11 -13 -19 -18 -11 -13 -16 -16 -17 -17 -17 -18 -17 -17 -17 -17 -17 -17 -16 -16 -16
-6 -7 -7 -7 -8 -8 -7 -7 -7 -8 -9 -13 -12 -11 -11 -12 -13 -11 -10 -9 -10 -10 -13 -17 -19 -19 -19 -12 -15 -16 -16 -17 -16 -16 -17 -17 -17 -18 -18 -17 -16 -15 -15 -16

GFSNW_850_dewp_300.txt.gz
Dewpoint
-5 -4 -3 -4 -3 -4 -6 -7 -3 -6 -5 -4 -2 -1 -1 -1 -1 -0 -1 -1 1 4 3 2 2 3 4 1 -0 -1 -2 -0 0 -1 -11 -6 -3 -2 -1 1 1 0 0 -1
-3 -5 -2 -2 -3 -4 -4 -6 -2 -4 -0 0 -1 -0 -0 1 1 1 2 3 2 0 1 1 2 1 -1 -2 -4 -0 -1 -1 0 1 -10 -7 -2 -3 -3 -1 -1 0 1 -1
-2 -6 -4 -2 -4 -5 -4 -5 -2 -3 -2 -1 -1 -1 -1 -1 -3 -1 0 2 1 -0 -0 -0 1 0 -2 -10 -7 -1 -1 -2 -0 0 0 -0 -0 -1 -5 -3 -1 -2 -2 -4
-2 -6 -9 -5 -4 -4 -3 -5 -3 -2 -3 -3 -4 -2 -2 -2 -3 -2 -0 0 -0 0 1 -1 0 -1 -0 -3 -8 -0 -1 -1 -1 -1 -1 -1 -0 -1 -2 -2 -3 -1 -3 -4
-2 -4 -6 -7 -5 -4 -3 -4 -3 -3 -3 -3 -3 -5 -4 -5 -2 -2 -2 -1 -0 -1 -0 -1 -1 -1 -3 -1 -2 -2 -3 -2 -2 -2 -3 -3 -2 -3 -3 -3 -3 -3 -3 -3
-2 -4 -5 -6 -4 -4 -3 -2 -3 -3 -4 -4 -3 -5 -4 -2 -4 -5 -3 -3 -2 -3 -4 -2 -1 -1 -2 -2 -1 -2 -3 -3 -3 -2 -4 -5 -2 -4 -4 -5 -5 -5 -3 -6
-3 -5 -5 -8 -4 -4 -3 -3 -2 -3 -4 -4 -4 -3 -6 -4 -3 -3 -3 -3 -2 -5 -3 -2 -3 -3 -2 -2 -3 -1 -2 -3 -2 -2 -4 -1 -7 -9 -9 -7 -8 -10 -13 -15
-5 -4 -5 -7 -6 -4 -3 -3 -2 -3 -4 -5 -6 -6 -5 -5 -6 -6 -5 -6 -5 -3 -4 -3 -6 -6 -4 -4 -5 -4 -2 -1 -1 -2 -3 -4 -8 -12 -13 -13 -10 -17 -16 -15
-5 -5 -5 -4 -9 -6 -2 -3 -2 -3 -3 -6 -8 -5 -6 -6 -7 -6 -4 -4 -5 -4 -3 -2 -4 -4 -7 -7 -4 -6 -3 -3 -3 -3 -3 -4 -9 -17 -17 -12 -6 -18 -16 -15
-5 -5 -5 -5 -6 -6 -4 -2 -3 -3 -4 -6 -5 -4 -5 -4 -4 -3 -5 -4 -3 -4 -5 -3 -3 -3 -6 -4 -2 -5 -6 -6 -5 -4 -3 -5 -9 -18 -16 -4 -3 -8 -14 -16
-5 -6 -5 -5 -6 -6 -5 -3 -3 -3 -3 -4 -3 -4 -4 -3 -3 -5 -5 -5 -7 -5 -4 -4 -4 -5 -5 -7 -7 -7 -7 -5 -7 -7 -7 -7 -17 -16 -7 -5 -6 -6 -11 -16
-6 -6 -6 -5 -7 -5 -5 -3 -4 -4 -3 -3 -3 -5 -4 -4 -5 -4 -4 -5 -5 -4 -5 -5 -4 -3 -8 -7 -4 -8 -5 -6 -5 -6 -7 -12 -17 -9 -8 -5 -5 -6 -10 -15
-7 -7 -6 -5 -5 -6 -7 -4 -4 -4 -4 -4 -5 -7 -9 -8 -6 -5 -4 -3 -4 -3 -4 -3 -3 -4 -6 -4 -5 -7 -8 -8 -5 -5 -6 -7 -13 -14 -6 -5 -6 -7 -8 -13
-8 -6 -6 -5 -6 -7 -7 -4 -5 -4 -4 -5 -7 -9 -7 -6 -7 -6 -5 -3 -3 -3 -4 -4 -4 -3 -5 -5 -6 -5 -6 -6 -4 -5 -7 -7 -6 -6 -6 -6 -7 -8 -9 -10
-6 -6 -6 -5 -5 -7 -6 -7 -7 -5 -4 -6 -6 -7 -6 -5 -5 -5 -5 -4 -4 -5 -5 -5 -5 -6 -5 -5 -6 -7 -8 -7 -5 -5 -5 -6 -6 -6 -6 -7 -7 -8 -9 -9
-6 -5 -5 -5 -5 -6 -5 -4 -4 -5 -4 -5 -8 -6 -6 -6 -7 -8 -8 -6 -6 -7 -6 -6 -6 -6 -6 -5 -6 -9 -7 -8 -8 -7 -7 -7 -7 -8 -8 -8 -8 -9 -9 -10
-5 -6 -4 -4 -4 -4 -5 -5 -6 -4 -4 -6 -6 -9 -6 -7 -9 -9 -8 -8 -8 -7 -7 -6 -6 -7 -7 -7 -7 -8 -7 -8 -10 -10 -10 -9 -9 -9 -10 -9 -9 -10 -11 -14
-6 -6 -4 -4 -4 -5 -6 -7 -5 -5 -5 -6 -8 -9 -8 -8 -9 -9 -8 -9 -7 -8 -7 -8 -9 -9 -9 -10 -10 -8 -8 -8 -10 -10 -10 -10 -10 -12 -14 -13 -13 -14 -16 -18
-7 -5 -5 -4 -6 -5 -5 -6 -6 -6 -5 -6 -8 -8 -9 -8 -8 -9 -9 -9 -11 -8 -11 -10 -9 -10 -9 -11 -10 -9 -8 -8 -9 -12 -13 -14 -14 -14 -14 -14 -15 -16 -17 -18
-4 -4 -5 -7 -5 -5 -5 -6 -7 -7 -7 -6 -10 -7 -9 -8 -8 -9 -9 -9 -13 -13 -12 -10 -10 -10 -12 -11 -10 -11 -13 -9 -12 -12 -15 -15 -15 -15 -15 -15 -16 -16 -17 -19
-4 -5 -6 -6 -5 -6 -6 -7 -8 -8 -10 -7 -7 -8 -10 -8 -10 -10 -9 -11 -12 -13 -11 -12 -11 -10 -10 -12 -13 -12 -13 -9 -14 -16 -17 -17 -17 -17 -17 -17 -16 -18 -19 -19
-4 -5 -5 -6 -6 -7 -9 -11 -10 -12 -10 -9 -9 -9 -9 -9 -9 -11 -11 -12 -12 -11 -10 -12 -11 -12 -12 -13 -13 -10 -9 -12 -17 -17 -17 -18 -19 -19 -19 -19 -19 -19 -18 -18
-5 -6 -6 -7 -8 -10 -10 -11 -11 -12 -9 -8 -9 -11 -9 -10 -10 -10 -12 -11 -10 -10 -12 -11 -11 -12 -12 -15 -12 -10 -12 -16 -17 -17 -18 -19 -19 -19 -19 -18 -18 -18 -18 -18
-6 -6 -7 -9 -10 -10 -10 -11 -8 -7 -7 -8 -9 -10 -10 -9 -11 -12 -11 -11 -12 -12 -12 -11 -12 -12 -19 -15 -10 -11 -16 -16 -17 -18 -19 -19 -19 -18 -18 -18 -18 -17 -17 -16
-6 -7 -7 -7 -9 -9 -7 -7 -7 -7 -7 -8 -10 -11 -10 -13 -11 -12 -12 -12 -11 -10 -10 -10 -12 -17 -21 -14 -11 -15 -16 -17 -17 -19 -19 -19 -18 -18 -18 -18 -18 -18 -17 -16
-6 -7 -7 -7 -8 -10 -7 -8 -8 -8 -8 -9 -9 -15 -14 -14 -14 -12 -11 -10 -9 -9 -10 -11 -13 -16 -19 -16 -11 -16 -16 -17 -18 -18 -18 -18 -18 -18 -18 -19 -18 -17 -16 -16
-6 -7 -7 -8 -8 -8 -8 -8 -7 -8 -9 -14 -15 -13 -12 -14 -14 -12 -11 -10 -10 -10 -12 -20 -21 -21 -21 -19 -11 -15 -16 -17 -17 -17 -18 -18 -18 -18 -19 -18 -17 -16 -16 -16

GFSNW_850_dewp_303.txt.gz
Dewpoint
-13 -6 -3 -2 -2 -2 -9 -7 -9 -2 -3 -6 -2 -1 0 -1 1 -2 1 1 1 3 1 2 1 2 3 -1 0 -2 -2 -0 -1 -1 -6 -4 -3 -2 -1 1 1 1 1 -1
-9 -2 -2 -3 -2 -3 -5 -5 -4 -4 -4 1 -1 -3 -4 -0 -0 -2 -3 -2 1 -0 0 1 0 -0 -2 1 -3 -2 -2 -2 -1 -2 -9 -7 -3 -2 -2 -1 -1 -0 1 -2
-3 -2 -2 -4 -3 -4 -7 -5 -3 -4 -3 -3 -4 -3 -3 -2 -4 -3 -1 -0 -0 0 -0 -1 0 -0 -1 -1 -6 -3 0 -0 -0 -0 -3 -2 -1 -1 -3 -1 -1 -2 -1 -3
-2 -2 -2 -4 -4 -4 -6 -5 -5 -2 -5 -4 -4 -3 -4 -2 -5 -3 -3 -3 -1 -0 -1 -2 -2 -4 -3 -4 -3 -3 -1 -1 -1 -1 -2 -0 -1 -1 -1 -2 -3 -1 -4 -4
-2 -2 -2 -4 -6 -3 -6 -6 -4 -3 -3 -4 -3 -5 -5 -5 -3 -3 -5 -3 -3 -4 -2 -3 -2 -4 -6 -6 -7 -2 -3 -3 -1 -2 -3 -3 -3 -3 -3 -2 -3 -3 -3 -3
-2 -3 -3 -4 -6 -3 -3 -3 -3 -2 -4 -4 -4 -5 -5 -3 -6 -6 -5 -5 -4 -3 -4 -4 -3 -2 -2 -3 -3 -3 -3 -3 -4 -3 -5 -4 -4 -4 -4 -5 -5 -4 -3 -6
-3 -3 -4 -4 -5 -5 -3 -3 -3 -3 -3 -3 -4 -4 -3 -5 -6 -3 -5 -5 -4 -5 -4 -3 -4 -4 -3 -4 -4 -4 -2 -3 -2 -2 -3 -2 -8 -9 -8 -6 -7 -8 -14 -15
-3 -3 -4 -4 -5 -5 -3 -3 -2 -2 -3 -4 -5 -6 -6 -6 -5 -6 -6 -6 -6 -4 -4 -5 -6 -7 -9 -5 -5 -3 -2 -2 -2 -3 -3 -2 -6 -12 -12 -12 -10 -17 -16 -16
-3 -3 -4 -5 -5 -5 -4 -5 -3 -2 -3 -5 -7 -7 -5 -7 -8 -8 -4 -5 -5 -3 -5 -3 -5 -5 -7 -6 -6 -7 -3 -4 -2 -4 -3 -2 -8 -16 -16 -11 -6 -18 -16 -15
-3 -4 -4 -4 -6 -5 -4 -4 -4 -3 -3 -4 -5 -6 -6 -5 -4 -5 -5 -5 -4 -4 -6 -3 -5 -5 -5 -3 -6 -5 -5 -5 -4 -4 -3 -6 -9 -18 -15 -5 -6 -11 -11 -14
-3 -3 -3 -4 -6 -6 -4 -4 -5 -3 -3 -3 -4 -4 -4 -4 -4 -5 -6 -5 -7 -5 -4 -6 -6 -6 -7 -8 -7 -8 -8 -7 -8 -9 -9 -7 -16 -15 -7 -7 -6 -6 -7 -11
-2 -3 -3 -6 -7 -6 -5 -3 -5 -4 -4 -4 -4 -4 -4 -4 -4 -4 -4 -6 -6 -5 -7 -8 -5 -4 -9 -7 -4 -9 -5 -7 -4 -5 -7 -12 -16 -11 -8 -4 -5 -6 -7 -10
-3 -3 -3 -7 -6 -5 -3 -4 -5 -4 -3 -4 -4 -6 -8 -8 -8 -7 -4 -5 -5 -4 -5 -5 -4 -4 -4 -4 -7 -8 -7 -8 -4 -4 -6 -7 -11 -11 -5 -5 -5 -7 -7 -12
-4 -4 -4 -7 -7 -4 -3 -4 -5 -4 -4 -5 -7 -8 -8 -9 -6 -5 -5 -5 -4 -4 -4 -4 -4 -4 -5 -4 -6 -6 -6 -5 -4 -5 -6 -7 -6 -6 -6 -6 -7 -7 -9 -11
-5 -5 -6 -6 -5 -4 -3 -4 -7 -7 -4 -5 -5 -6 -6 -6 -6 -5 -5 -5 -4 -5 -5 -6 -6 -6 -5 -6 -7 -7 -8 -7 -6 -6 -6 -7 -7 -6 -7 -7 -7 -8 -8 -9
-5 -6 -5 -5 -4 -4 -4 -6 -5 -5 -4 -4 -9 -8 -6 -6 -6 -7 -8 -6 -6 -6 -6 -6 -6 -6 -6 -6 -7 -9 -7 -8 -8 -8 -9 -9 -8 -8 -9 -9 -9 -9 -9 -9
-6 -6 -5 -5 -5 -4 -4 -6 -6 -5 -5 -5 -10 -10 -6 -7 -8 -9 -8 -8 -8 -7 -7 -7 -7 -7 -7 -8 -8 -8 -7 -8 -9 -10 -11 -9 -10 -10 -9 -9 -9 -10 -10 -12
-6 -5 -5 -4 -4 -3 -4 -4 -5 -5 -5 -6 -7 -9 -8 -8 -9 -9 -8 -8 -8 -8 -8 -8 -9 -10 -9 -10 -11 -8 -8 -8 -9 -10 -11 -10 -10 -13 -13 -12 -11 -12 -15 -17
-5 -5 -4 -4 -4 -5 -5 -6 -6 -5 -6 -6 -8 -10 -9 -7 -8 -8 -8 -8 -13 -9 -12 -12 -10 -13 -10 -11 -12 -10 -9 -8 -8 -12 -12 -13 -14 -14 -14 -14 -15 -16 -17 -18
-4 -4 -4 -5 -5 -5 -6 -6 -7 -7 -6 -6 -10 -8 -9 -8 -8 -9 -10 -10 -14 -14 -13 -10 -12 -11 -12 -12 -12 -10 -11 -12 -9 -12 -15 -15 -15 -15 -15 -15 -16 -17 -17 -18
-4 -4 -5 -5 -6 -6 -6 -7 -8 -8 -10 -7 -8 -8 -11 -8 -10 -10 -9 -12 -12 -13 -13 -13 -14 -12 -11 -12 -12 -13 -14 -11 -12 -12 -17 -17 -18 -17 -17 -16 -16 -17 -19 -19
-5 -5 -5 -6 -6 -7 -9 -10 -10 -11 -9 -9 -9 -9 -9 -9 -9 -11 -11 -12 -13 -10 -11 -14 -12 -12 -13 -12 -13 -13 -12 -10 -17 -17 -17 -18 -19 -19 -19 -19 -19 -19 -19 -19
-5 -5 -6 -7 -8 -9 -9 -10 -10 -11 -9 -9 -9 -11 -9 -10 -10 -11 -12 -12 -10 -10 -13 -11 -12 -14 -12 -12 -15 -11 -10 -13 -17 -17 -17 -19 -20 -20 -20 -19 -18 -18 -18 -18
-5 -6 -8 -10 -11 -10 -10 -10 -8 -7 -8 -8 -9 -10 -10 -10 -11 -11 -11 -12 -11 -11 -12 -11 -12 -13 -19 -20 -14 -10 -11 -17 -17 -17 -18 -19 -19 -19 -18 -18 -18 -18 -17 -17
-6 -7 -9 -9 -10 -10 -8 -10 -8 -8 -8 -8 -10 -11 -10 -13 -12 -11 -12 -12 -10 -10 -10 -11 -12 -15 -20 -20 -13 -11 -15 -17 -17 -18 -19 -19 -19 -19 -19 -18 -18 -18 -18 -18
-5 -6 -9 -8 -9 -10 -8 -7 -8 -8 -8 -9 -10 -17 -15 -14 -14 -12 -11 -10 -9 -9 -10 -12 -15 -20 -20 -20 -15 -12 -16 -17 -18 -19 -19 -19 -19 -19 -19 -19 -19 -18 -17 -17
-6 -7 -7 -8 -8 -9 -8 -8 -8 -8 -9 -15 -16 -14 -12 -15 -14 -12 -12 -10 -9 -11 -11 -18 -17 -17 -22 -22 -19 -12 -16 -16 -18 -18 -18 -18 -18 -19 -19 -19 -18 -17 -16 -16